Location: Spruce Knob
(38.6995°N, 79.5330°W)
Time: 01:50:03
(UTC-05:00)

ISS - Visible Passes

Search period start: 06 December 2023 00:00
Search period end: 16 December 2023 00:00
Orbit: 415 x 417 km, 51.6° (Epoch: 06 December)

Date Brightness Start Highest point End Pass type
(mag) Time Alt. Az. Time Alt. Az. Time Alt. Az.
06 Dec -3.3 17:41:40 10° WNW 17:44:59 65° SW 17:48:17 10° SE visible
07 Dec -0.3 18:31:30 10° WSW 18:32:41 11° SW 18:33:52 10° SSW visible
08 Dec -0.8 17:41:40 10° W 17:44:15 21° SW 17:46:48 10° S visible
14 Dec -0.3 06:20:53 10° SSE 06:22:21 12° SE 06:23:48 10° ESE visible
